x

Ne Puerto Rico - 170 Nm Nne Of San Juan, P R (41043) Wave Buoy

8:50am - Tue 1st Sep 2015 All times are AST. -4 hours from GMT.

  • Sig Wave height 3.3ft
  • Swell Direction
  • Peak Period 10s
  • Average Period 5s
  • Wind
    11mph, 13mph gusts
  • Sea Temp 84°f
  • Air Temp 84°f
  • Sea Pressure 1018mb
  • Ne Puerto Rico  - 170 Nm Nne Of San Juan,  P R
  • Ne Puerto Rico  - 170 Nm Nne Of San Juan,  P R

More Historic Weather Station data

Upgrade to MSW Pro to gain access to the past 30 days of data for over 8000 Wavebouys and Weather Stations around the globe.

Join Pro

Comparision Forecast

View Surf forecast
   
Tue 09/01 8:50am 3.5ft 10s 5s 11 13 mph 1018mb 84f 84f
7:50am 3.5ft 9s 5s 13 16 mph 1017.7mb 84f 84f
6:50am 3.5ft 10s 5s 11 13 mph 1017.2mb 84f 84f
5:50am 3.5ft 10s 6s 11 13 mph 1016.6mb 84f 83f
4:50am 3.5ft 10s 5s 9 11 mph 1016.3mb 84f 83f
3:50am 3.5ft 10s 5s 11 13 mph 1016.5mb 84f 83f
2:50am 3.5ft 10s 5s 11 13 mph 1016.8mb 84f 83f
1:50am 3.5ft 10s 5s 13 16 mph 1017.1mb 84f 83f
12:50am 3.5ft 10s 5s 13 16 mph 1017.7mb 84f 84f
Mon 08/31 11:50pm 3.5ft 10s 5s 13 16 mph 1018.3mb 84f 84f
10:50pm 3.5ft 10s 5s 13 16 mph 1018.4mb 84f 84f
9:50pm 3.5ft 8s 5s 13 16 mph 1018.2mb 84f 84f
8:50pm 3.5ft 9s 5s 13 16 mph 1017.8mb 84f 84f
7:50pm 4ft 9s 5s 13 16 mph 1017.3mb 85f 84f
6:50pm 4ft 10s 5s 13 16 mph 1016.9mb 85f 84f
5:50pm 4ft 9s 5s 16 18 mph 1016.6mb 85f 84f
4:50pm 4ft 11s 5s 13 18 mph 1016.4mb 85f 84f
3:50pm 4.5ft 10s 5s 13 16 mph 1016.9mb 85f 84f
2:50pm 4.5ft 10s 6s 13 16 mph 1017.3mb 85f 84f
1:50pm 4.5ft 10s 6s 13 16 mph 1017.7mb 85f 84f
12:50pm 4.5ft 10s 6s 13 16 mph 1018.3mb 85f 84f
11:50am 4.5ft 9s 6s 13 16 mph 1018.7mb 85f 84f
10:50am 4.5ft 9s 6s 13 16 mph 1018.9mb 84f 84f
9:50am 4.5ft 10s 6s 13 16 mph 1018.9mb 84f 84f
8:50am 4.5ft 10s 6s 13 16 mph 1018.5mb 84f 84f
7:50am 4.5ft 10s 6s 13 16 mph 1017.8mb 84f 83f
6:50am 4.5ft 11s 6s 13 16 mph 1017.5mb 84f 83f
5:50am 5ft 11s 6s 11 13 mph 1017.1mb 84f 83f
4:50am 4.5ft 11s 6s 13 16 mph 1016.9mb 84f 83f
3:50am 4.5ft 10s 6s 13 16 mph 1017mb 84f 83f
2:50am 5ft 10s 6s 16 18 mph 1017.1mb 84f 83f
1:50am 4.5ft 10s 6s 16 18 mph 1017.7mb 84f 83f
12:50am 4.5ft 11s 6s 13 18 mph 1017.9mb 84f 83f
Sun 08/30 11:50pm 4.5ft 11s 6s 13 16 mph 1018.1mb 84f 84f
10:50pm 4.5ft 11s 6s 13 18 mph 1018.4mb 84f 84f
9:50pm 4.5ft 11s 6s 13 16 mph 1018.6mb 84f 84f
8:50pm 4.5ft 11s 6s 13 18 mph 1018.1mb 84f 84f
7:50pm 5ft 11s 6s 13 18 mph 1017.8mb 84f 84f
6:50pm 5ft 9s 6s 13 16 mph 1017.1mb 84f 84f
5:50pm 4.5ft 11s 6s 13 16 mph 1016.9mb 84f 84f
4:50pm 4.5ft 10s 6s 13 16 mph 1017mb 85f 84f
3:50pm 5ft 11s 6s 13
mph
1017mb 85f 84f
2:50pm 5ft 10s 6s 13 16 mph 1017.3mb 84f 84f
1:50pm 5ft 10s 6s 13 16 mph 1017.5mb 84f 84f
12:50pm 5ft 10s 6s 13 18 mph 1018mb 84f 84f
11:50am 4.5ft 12s 6s 13 18 mph 1018.2mb 84f 84f
10:50am 5ft 11s 6s 16 18 mph 1018.3mb 84f 84f
9:50am 4.5ft 10s 6s 13 16 mph 1018.1mb 84f 83f
8:50am 5ft 10s 6s 16 18 mph 1017.6mb 84f 83f
7:50am 5ft 10s 6s 16 18 mph 1016.9mb 84f 83f
6:50am 4.5ft 11s 6s 16 18 mph 1016.5mb 84f 83f
5:50am 5ft 11s 6s 13 18 mph 1016mb 84f 83f
4:50am 4.5ft 11s 5s 13 16 mph 1015.7mb 84f 83f
3:50am 4.5ft 11s 5s 16 18 mph 1015.6mb 84f 83f
2:50am 4.5ft 11s 6s 16 20 mph 1016.1mb 84f 83f
1:50am 4.5ft 11s 6s 13 18 mph 1016.6mb 84f 83f
12:50am 5ft 11s 5s 16 18 mph 1017mb 84f 83f
Sat 08/29 11:50pm 4.5ft 7s 5s 16 20 mph 1017.5mb 84f 83f
10:50pm 4.5ft 11s 6s 16 20 mph 1017.8mb 84f 83f
9:50pm 4.5ft 6s 5s 16 18 mph 1017.9mb 84f 83f
8:50pm 5ft 9s 6s 13 16 mph 1017.4mb 84f 83f
7:50pm 4.5ft 8s 6s 13 16 mph 1017.1mb 84f 83f
6:50pm 4.5ft 9s 6s 13 16 mph 1016.6mb 84f 83f
5:50pm 4.5ft 11s 6s 13 18 mph 1016.5mb 84f 84f
4:50pm 5ft 7s 6s 13 18 mph 1016.5mb 84f 84f
3:50pm 5ft 9s 6s 13
mph
1016.9mb 85f 84f
2:50pm 5ft 12s 6s 13 16 mph 1017.2mb 85f 84f
1:50pm 4.5ft 9s 6s 13 16 mph 1017.5mb 84f 84f
12:50pm 5ft 9s 6s 13 16 mph 1018.2mb 84f 84f
11:50am 5ft 9s 5s 13 16 mph 1018.5mb 84f 84f
10:50am 5ft 10s 5s 16 20 mph 1018.7mb 84f 84f
9:50am 5ft 8s 6s 18 20 mph 1018.3mb 84f 84f
8:50am 5ft 7s 6s 16 20 mph 1018.3mb 84f 84f
7:50am 5ft 8s 5s 18 20 mph 1017.7mb 84f 84f
6:50am 5ft 9s 6s 18 20 mph 1017.3mb 84f 83f
5:50am 5ft 10s 6s 16 20 mph 1017mb 84f 83f
4:50am 5ft 10s 6s 16 20 mph 1016.7mb 84f 83f
3:50am 5.5ft 9s 6s 18 20 mph 1016.6mb 84f 83f
2:50am 5ft 10s 5s 18 20 mph 1017mb 84f 83f
1:50am 5ft 9s 5s 18 22 mph 1017.2mb 84f 83f
12:50am 5ft 8s 5s 18 20 mph 1017.7mb 84f 83f
Fri 08/28 11:50pm 5.5ft 9s 6s 18 20 mph 1018.4mb 84f 84f
10:50pm 5.5ft 8s 6s 16 18 mph 1018.7mb 84f 84f
9:50pm 5.5ft 8s 6s 16 18 mph 1018.5mb 84f 84f
8:50pm 6ft 8s 6s 16 18 mph 1018mb 84f 84f
7:50pm 6ft 8s 6s 18 20 mph 1017.2mb 84f 84f
6:50pm 6ft 8s 6s 18 22 mph 1016.8mb 84f 84f
5:50pm 6.5ft 8s 6s 18 20 mph 1016.8mb 84f 84f
4:50pm 6.5ft 9s 6s 18 20 mph 1016.4mb 84f 84f
3:50pm 7ft 8s 6s 16 20 mph 1016.4mb 84f 84f
2:50pm 7.5ft 9s 6s 18 20 mph 1016.7mb 84f 84f